Location: Altleiningen
(49.5078°N, 8.0741°E)
Time: 11:49:57
(UTC+00:00)

USA 306 - Pass Details

Date: 03 March 2021
Orbit: 564 x 577 km, 54.0° (Epoch: 13 April)

Event Time Altitude Azimuth Distance (km) Brightness Sun altitude
Rises 20:00:04 0° 291° (WNW) 2,773 7.7 -27.2°
Reaches altitude 10° 20:02:22 10° 296° (WNW) 1,872 6.5 -27.6°
Enters shadow 20:05:20 40° 320° (NW) 847 4.1 -28.0°
